Regional Weather Roundup
Issued by NWS Cleveland, OH

Home | Current Version | Previous Version | Text Only | Print | Product List | Glossary Off
Versions: 1 2 3 4 5 6 7 8 9 10 11 12 13 14 15 16 17 18 19 20 21 22 23 24 25 26 27 28 29 30 31 32 33 34 35 36 37 38 39 40 41 42 43 44 45 46 47 48 49 50

000
ASUS41 KCLE 241302
RWRCLE
OHIO REGIONAL WEATHER ROUNDUP
NATIONAL WEATHER SERVICE CLEVELAND, OH
900 AM EDT WED AUG 24 2016

NOTE: "FAIR" INDICATES FEW OR NO CLOUDS BELOW 12,000 FEET WITH NO
SIGNIFICANT WEATHER AND/OR OBSTRUCTIONS TO VISIBILITY.

OHZ001>008-015>018-024>027-034-035-043-044-241400-
   NORTHWEST OHIO

CITY           SKY/WX    TMP DP  RH WIND       PRES   REMARKS
DEFIANCE       MOSUNNY   71  61  70 S7        30.13F
FINDLAY        CLOUDY    69  60  73 S9        30.17S
TOLEDO EXPRESS CLOUDY    66  62  87 S6        30.14F
TOLEDO EXEC    CLOUDY    68  63  84 S8        30.16F
LIMA           CLOUDY    68  64  87 S8        30.17F
$$

OHZ009>014-019>023-028>033-038-089-241400-
   NORTHEAST OHIO

CITY           SKY/WX    TMP DP  RH WIND       PRES   REMARKS
CLE-HOPKINS    MOSUNNY   73  59  61 S8        30.23S
CLE-LAKEFRONT  SUNNY     74  59  59 S10       30.19F
CUY CO. ARPT   MOSUNNY   73  63  68 S7        30.22F
LORAIN-ELYRIA  CLOUDY    67  60  78 S7        30.22F
ASHTABULA      SUNNY     67  62  84 S7        30.24F
AKRON-CANTON   PTSUNNY   71  60  68 SW6       30.25R
WOOSTER        CLOUDY    65  62  90 CALM      30.25S
MANSFIELD      CLOUDY    67  60  78 S9        30.23F
YOUNGSTOWN     MOSUNNY   69  60  73 S7        30.25S
$$

OHZ042-051>053-060>062-070>072-077>081-241400-
  SOUTHWEST OHIO

CITY           SKY/WX    TMP DP  RH WIND       PRES   REMARKS
CINC-COVINGTON CLOUDY    71  65  81 S7        30.20S
CINC-LUNKEN    CLOUDY    69  67  93 CALM      30.21S
HAMILTON       PTSUNNY   72  65  78 CALM      30.20F
DAYTON         CLOUDY    70  62  76 S8        30.20F
WRIGHT-PAT AFB PTSUNNY   69  63  81 SE6       30.20S
DAYTON GENERAL PTSUNNY   70  62  76 S7        30.20S
WILMINGTON     CLOUDY    69  63  81 S6        30.22S
$$

OHZ036-037-039>041-045>050-054>059-063>069-073>076-082>088-241400-
  CENTRAL AND SOUTHEAST OHIO

CITY           SKY/WX    TMP DP  RH WIND       PRES   REMARKS
COLUMBUS       CLOUDY    69  61  75 SE5       30.22R
OSU AIRPORT    CLOUDY    69  62  78 S7        30.22S
BOLTON FIELD   SUNNY     66  63  88 S5        30.23R
RICKENBACK AFB CLOUDY    66  61  85 CALM      30.22S
NEWARK         MOSUNNY   66  62  87 CALM      30.23S
MARION         CLOUDY    66  60  81 S9        30.21F
LANCASTER      CLOUDY    67  62  84 SE3       30.23S
ZANESVILLE     MOSUNNY   64  61  90 CALM      30.25R
NEW PHILLY     CLOUDY    66  60  81 CALM      30.26R
$$




USA.gov is the U.S. government's official web portal to all federal, state and local government web resources and services.